Погода в Тхонъёне

Южная Корея     34°53′43″N   128°24′24″E
темп.,
°C
ветер,
м/с
пор.,
м/с
влажн.,
%
обл.,
%
осадки,
мм/ч
давл.,
гПа
погр.,
м
15 апреля, чт
чт1500:00+8ссз2252100 0.0 102059
03:00+7сз3354100 0.0 102075
06:00+6ссз335997 0.0 102078
09:00+11с224497 0.0 1020271
12:00+13в2334100 0.0 1020529
15:00+13юв2242100 0.0 1019357
18:00+12ю125694 0.0 101967
21:00+10зсз11643 0.0 102020
16 апреля, пт
пт1600:00+9сз116523 0.0 101937
03:00+9ссз116693 0.0 101949
06:00+9ссв00694 0.0 101841
09:00+13ю136695 0.0 1018270
12:00+15ююз587597 0.0 1018642
15:00+13ююз3792100 0.3 1017345
18:00+14ююз4788100 0.1 1017300
21:00+13ююз2294100 0.1 101840
17 апреля, сб
сб1700:00+13ююз1195100 0.0 101817
03:00+13сз0096100 0.0 101611
06:00+12ююз3388100 0.0 101460
09:00+15юз577778 0.0 1014450
12:00+16юз911677 0.0 1012921
15:00+17зюз914561 0.0 10091338
18:00+13зсз813410 0.0 10121431
21:00+9з512430 0.0 10151166
18 апреля, вс
вс1800:00+8зсз510560 0.0 1014778
03:00+7зсз412666 0.0 1013928
06:00+7зсз412681 0.0 1013829
09:00+11сз919540 0.0 10141512
12:00+15сз915391 0.0 10131394
15:00+16зсз711360 0.0 10121110
18:00+14зсз59440 0.0 1013450
21:00+10зсз33550 0.0 101554
19 апреля, пн
пн1900:00+9зсз33580 0.0 101663
03:00+7сз33610 0.0 101574
06:00+7сз33630 0.0 101675
09:00+13зсз23430 0.0 1017324
12:00+17зюз35420 0.0 1016694
15:00+17юз67440 0.0 1014633
18:00+15ююз34640 0.0 101489
21:00+12з12690 0.0 101613